Location: Mauries
(43.6188°N, 0.3322°W)
Time: 20:17:06
(UTC+00:00)

BREEZE-M DEB (TANK) - Pass Details

Date: 14 January 2026
Orbit: 290 x 14651 km, 49.5° (Epoch: 10 February)

Event Time Altitude Azimuth Distance (km) Brightness Sun altitude
Exits shadow 05:13:00 37° 294° (WNW) 2,462 5.0 -24.7°
Maximum altitude 05:17:01 80° 214° (SW) 1,104 3.6 -24.0°
Drops below altitude 10° 05:20:58 10° 127° (SE) 1,952 5.9 -23.2°
Sets 05:22:18 0° 125° (SE) 2,552 6.8 -23.0°
